SK0BO-13 Weather Reports


time (UTC)temp
F
wind
direction
speed
knots
gust
knots
rain 1hr
in
rain 24hr
in
rain mn
in
humidity
%
barometer
mb
20260508104043 61 81 3.5 6.1 0.00 0.00 0.00 100 1009.7
20260508095842 61 125 2.6 6.1 0.00 0.00 0.00 100 1009.7
20260508091642 58 68 2.6 6.1 0.00 0.00 0.00 1 1009.7
20260508083442 57 88 2.6 6.1 0.00 0.00 0.00 100 1009.7
20260508075242 56 117 2.6 6.1 0.00 0.00 0.00 2 1009.7
20260508071043 54 98 2.6 5.2 0.00 0.00 0.00 6 1009.7
20260508062842 51 153 1.7 7.0 0.00 0.00 0.00 11 1009.4
20260508054642 51 94 2.6 6.1 0.00 0.00 0.00 13 1008.7
20260508050442 50 146 1.7 3.5 0.00 0.00 0.00 20 1008.7
20260508042242 45 175 1.7 2.6 0.00 0.00 0.00 31 1008.4
20260508034042 42 171 1.7 1.7 0.00 0.00 0.00 39 1007.7
20260508025842 41 157 2.6 2.6 0.00 0.00 0.00 39 1007.7
20260508021643 41 164 1.7 2.6 0.00 0.00 0.00 37 1006.8
20260508013442 41 157 2.6 4.3 0.00 0.00 0.00 37 1005.8
20260508005242 42 176 1.7 2.6 0.00 0.00 0.00 33 1005.7
20260508001042 42 157 2.6 2.6 0.00 0.00 0.00 33 1004.9
20260507232842 42 169 2.6 2.6 0.00 0.00 0.00 32 1004.7
20260507224642 43 162 2.6 2.6 0.00 0.00 0.00 27 1004.7
20260507220442 44 169 1.7 2.6 0.00 0.00 0.00 19 1004.2
20260507212242 45 181 1.7 2.6 0.00 0.00 0.00 18 1003.7
20260507204042 46 200 2.6 2.6 0.00 0.00 0.00 11 1003.7
20260507195842 47 174 1.7 2.6 0.00 0.00 0.00 7 1002.8
20260507191642 49 157 1.7 2.6 0.00 0.00 0.00 3 1002.7
20260507183442 51 133 1.7 2.6 0.00 0.00 0.00 1 1001.7
20260507175242 51 83 1.7 3.5 0.00 0.00 0.00 100 1001.7
20260507171042 54 72 1.7 3.5 0.00 0.00 0.00 100 1000.7
20260507162842 57 108 1.7 5.2 0.00 0.00 0.00 100 1000.7
20260507154643 58 86 2.6 6.1 0.00 0.00 0.00 100 1000.1
20260507150442 57 65 3.5 7.0 0.00 0.00 0.00 999.7
20260507142242 60 149 2.6 5.2 0.00 0.00 0.00 999.7
20260507134042 58 147 3.5 5.2 0.00 0.00 0.00 999.7
20260507125842 63 319 2.6 5.2 0.00 0.00 0.00 999.4
20260507121642 63 314 2.6 6.1 0.00 0.00 0.00 998.8
20260507113443 63 348 2.6 5.2 0.00 0.00 0.00 998.7